Wetbulb
45.61 45.63 45.21 44.74 45.00 44.91 44.26 43.99 43.71 44.30 43.89 43.70 43.75 44.20 44.82 45.28 46.12 46.45 47.09 47.77 47.68 48.23 49.31 49.02 48.54 49.73 49.82 50.21 50.31 50.11 48.71 48.24 45.27 47.12 48.83 49.34 43.24 41.37 39.63 39.62 39.94 39.77 40.48
44.47 44.15 43.49 43.42 43.33 42.58 41.94 41.88 42.25 41.65 42.73 42.29 42.26 42.49 42.42 42.52 43.05 43.06 43.13 44.20 44.21 44.74 45.95 46.14 45.55 45.87 46.15 47.41 47.90 47.48 47.75 47.80 45.86 43.71 46.18 46.43 44.35 41.47 41.92 39.48 38.47 37.88 37.96
42.82 42.51 41.63 41.12 41.11 40.64 40.57 40.73 40.93 40.78 41.23 41.34 41.07 40.36 40.19 40.69 40.39 41.11 40.79 40.75 41.49 42.25 42.76 42.71 42.32 42.44 41.75 42.83 44.06 44.31 45.31 45.53 45.64 43.79 43.41 45.30 45.49 35.31 34.85 34.52 34.66 35.67 35.76
41.37 40.66 39.65 39.11 39.13 39.08 39.21 38.97 38.74 38.90 38.91 38.67 38.70 38.51 38.60 38.36 38.83 38.37 37.75 38.51 38.92 39.09 39.61 39.78 39.65 39.56 39.68 40.80 40.88 41.13 41.57 41.35 41.82 41.72 41.92 42.17 42.73 34.73 32.85 33.23 33.49 33.02 34.11
39.93 39.27 38.24 38.58 37.81 37.52 36.91 36.68 36.58 36.46 36.59 36.61 35.84 36.34 36.48 36.80 36.28 35.80 35.87 36.45 36.70 36.58 36.97 36.83 37.60 36.89 36.15 37.96 38.10 38.05 38.03 37.77 38.07 38.10 38.55 39.48 39.48 33.64 31.93 33.56 32.07 34.19 31.71
37.77 36.26 35.94 35.87 35.12 35.38 34.76 34.20 34.18 34.48 35.00 34.74 34.28 34.58 34.36 34.67 36.71 36.86 35.79 34.97 35.01 35.00 35.12 35.71 36.20 35.25 36.14 36.95 37.34 38.26 38.56 36.15 34.71 35.15 35.45 35.22 36.09 37.36 37.19 33.72 32.37 28.36 28.78
36.06 34.54 33.59 33.48 33.51 33.50 32.97 32.85 32.87 32.99 33.39 32.86 33.24 33.73 33.47 34.11 35.77 35.82 35.48 33.81 33.75 34.59 34.95 34.89 34.54 34.78 34.53 34.59 35.52 36.31 36.34 36.67 37.30 35.42 33.48 33.91 33.94 35.22 34.66 33.57 31.06 29.57 30.17
34.40 33.66 32.61 32.23 31.68 31.53 31.20 31.06 31.80 32.05 31.38 31.50 31.98 32.22 32.42 32.79 34.72 34.79 34.49 33.20 33.33 33.48 33.62 33.53 33.23 33.34 33.68 33.13 33.73 33.55 33.55 34.07 34.31 34.22 33.71 33.33 33.60 34.07 34.07 34.47 32.15 31.17 30.16
32.73 32.16 31.46 31.16 29.90 29.89 28.51 29.96 30.42 30.46 30.50 30.82 30.74 31.02 30.61 31.24 33.46 33.93 33.21 31.89 31.60 31.84 32.36 32.74 32.66 32.26 34.21 35.43 32.88 31.93 31.97 32.63 35.22 36.27 36.49 36.73 36.54 36.83 36.32 31.83 30.14 28.84 27.26
30.22 29.80 29.94 29.87 28.51 28.44 29.84 29.63 31.08 31.17 30.56 31.16 31.10 31.89 30.89 30.18 32.42 33.16 32.58 31.32 30.13 30.76 31.56 31.75 32.42 34.39 34.23 34.02 31.82 31.59 29.80 31.36 32.53 32.57 32.47 33.09 33.29 32.92 33.81 31.90 31.45 28.75 26.31
28.41 28.29 27.96 28.04 26.69 27.94 28.92 30.26 30.21 30.41 30.36 30.67 30.77 32.10 31.41 30.72 30.79 32.35 33.00 30.85 29.80 29.56 30.43 31.36 32.44 33.05 32.94 33.20 33.69 32.26 32.09 33.52 32.85 31.48 31.80 31.74 31.55 31.21 31.11 31.39 30.44 29.93 29.02
26.14 25.55 25.12 24.41 25.78 27.18 26.22 27.36 28.44 29.76 29.99 30.10 30.53 31.03 31.51 31.56 31.80 32.35 32.93 32.62 32.72 31.98 30.84 30.40 30.62 32.11 32.31 33.27 33.26 33.89 33.55 32.35 31.57 31.59 31.14 29.95 28.72 26.20 25.65 25.02 24.58 23.81 24.49
21.25 19.99 22.07 23.63 24.18 25.49 25.46 25.68 27.17 28.60 28.60 28.90 29.08 29.56 29.74 30.88 31.01 32.46 32.63 32.39 33.04 31.13 30.49 30.97 31.97 31.82 33.10 32.73 32.56 32.28 30.98 31.15 30.97 30.36 28.60 26.88 26.54 26.74 26.82 25.82 25.07 23.71 21.20
18.94 20.85 21.88 22.25 23.70 24.44 25.91 25.95 26.16 26.69 27.27 27.50 28.04 28.56 29.23 29.34 29.23 30.66 31.03 30.57 31.81 30.88 30.64 30.42 31.33 32.52 33.18 31.51 30.26 31.37 31.48 30.92 30.62 29.45 27.93 28.23 28.24 26.18 24.91 25.81 24.11 23.38 20.52
18.12 19.55 21.23 22.64 22.60 22.03 23.29 24.09 24.27 25.41 26.58 26.16 27.11 28.66 28.22 27.80 28.97 31.29 31.74 30.81 32.03 31.53 29.76 29.89 29.05 29.74 29.23 28.99 29.20 28.04 28.43 28.94 29.21 29.74 28.60 27.29 25.92 24.43 23.36 24.77 24.30 22.98 20.26
15.55 18.30 19.55 17.87 19.43 20.05 20.60 21.39 25.36 26.54 27.70 28.97 30.38 29.81 29.60 31.81 31.11 31.04 32.49 33.16 31.57 30.92 28.62 26.67 25.74 26.05 25.55 25.65 25.47 25.48 24.32 23.82 25.05 26.59 26.17 25.64 24.14 23.11 22.39 22.53 22.88 21.48 18.77
10.48 13.00 14.83 15.92 17.47 17.98 18.84 18.93 18.12 21.91 25.55 27.03 28.91 29.99 30.60 31.64 29.99 29.63 30.80 31.59 27.91 28.97 26.62 24.93 23.76 23.22 23.23 23.19 23.03 22.44 21.46 21.61 22.99 22.53 22.41 22.67 22.86 22.06 21.68 20.71 20.50 19.38 17.02
6.67 8.65 11.05 13.63 15.61 16.53 17.01 17.45 18.11 17.27 17.47 20.23 25.88 27.90 29.05 29.41 28.08 27.61 28.61 29.63 26.73 23.66 21.51 20.40 18.81 19.46 20.21 20.18 19.94 19.71 19.96 19.79 19.25 19.05 18.85 19.07 19.99 20.43 19.65 18.42 17.99 17.27 15.38
8.85 11.34 13.04 13.56 13.88 14.56 14.93 15.15 16.80 17.66 18.23 19.63 22.56 25.97 26.24 26.90 26.05 23.85 24.18 25.86 24.38 20.86 19.06 17.09 15.64 16.52 17.62 18.04 17.32 16.65 15.42 14.40 14.82 15.58 15.43 15.14 15.72 16.52 15.02 14.49 12.13 11.46 12.76
9.28 9.33 9.51 10.82 11.79 13.28 14.46 15.01 15.79 16.92 17.83 19.72 21.90 23.22 23.69 21.66 20.74 20.85 18.82 20.09 19.73 18.15 16.93 15.59 14.76 14.63 14.10 14.46 14.41 14.00 13.70 12.70 12.21 12.10 11.53 11.46 11.51 12.18 11.13 8.86 8.05 8.02 5.97
9.15 10.09 9.22 10.21 11.91 13.31 13.68 13.71 14.69 15.90 16.87 19.18 21.93 20.71 21.67 18.56 19.10 16.39 14.96 14.24 14.72 14.15 13.28 12.28 10.79 9.77 9.35 9.27 9.93 9.08 8.27 8.63 7.22 6.43 6.28 5.67 4.64 3.74 3.68 4.49 1.43 -1.15 -1.72
8.25 9.92 10.63 10.32 11.12 11.70 12.89 13.66 13.48 15.19 17.23 19.29 19.48 16.89 16.21 14.44 13.63 12.07 10.78 9.23 8.47 8.55 8.79 9.05 7.77 5.83 4.96 5.41 5.60 7.35 5.61 2.82 1.86 0.97 -0.07 -2.10 0.15 -0.65 -0.41 -0.86 -1.87 -2.87 -4.41
9.30 9.28 9.57 10.35 11.38 11.48 12.32 13.49 14.39 15.04 15.09 16.33 15.31 13.96 12.48 11.40 10.47 9.61 8.15 7.49 7.36 7.03 6.19 6.78 6.35 4.16 3.06 2.63 2.50 1.47 1.23 0.48 -1.44 -3.46 -1.76 -1.89 -3.25 -4.11 -4.02 -4.44 -6.83 -6.88 -6.83
8.15 8.14 8.42 8.81 9.58 8.62 10.38 10.75 11.29 11.41 11.32 11.60 11.59 11.11 10.07 9.45 8.85 7.49 7.08 6.63 6.29 5.46 4.86 4.25 3.77 1.83 1.54 0.70 1.05 -0.07 -1.80 -4.23 -6.54 -8.02 -8.49 -6.03 -6.91 -8.15 -6.64 -9.17 -7.89 -9.55 -7.32
6.59 6.53 6.56 6.84 6.63 7.03 7.47 8.57 8.80 8.96 9.17 8.90 8.82 8.62 8.27 7.97 7.55 7.21 6.64 5.95 4.86 4.44 4.52 3.23 2.65 1.87 0.34 -0.76 -1.49 -3.33 -4.22 -2.29 -9.43 -9.12 -11.97 -10.69 -10.61 -12.23 -12.48 -10.60 -10.30 -9.10 -9.38
4.84 4.84 4.95 5.28 5.14 5.39 5.26 5.30 5.93 7.04 6.95 7.16 7.03 6.89 6.63 6.79 6.90 6.73 6.33 5.06 4.00 3.84 3.54 3.42 2.61 1.38 0.30 -0.34 -1.44 -1.21 -3.46 -1.17 -9.62 -10.11 -12.51 -10.16 -11.62 -11.90 -12.75 -13.19 -14.32 -11.15 -10.99
MSLP
1022.55 1022.62 1022.77 1023.11 1023.14 1023.31 1023.49 1023.61 1023.78 1023.54 1023.50 1023.35 1023.24 1023.05 1022.86 1022.65 1022.28 1022.08 1021.79 1021.43 1021.11 1020.81 1020.52 1020.14 1019.82 1019.62 1019.18 1018.81 1018.52 1018.14 1017.73 1017.52 1016.57 1013.57 1014.77 1014.71 1014.66 1014.69 1014.69 1014.50 1014.34 1014.19 1014.16
1023.18 1023.19 1023.38 1023.76 1023.92 1023.85 1024.06 1024.25 1024.23 1024.14 1024.00 1023.79 1023.56 1023.39 1023.23 1023.01 1022.72 1022.48 1022.17 1021.83 1021.39 1020.88 1020.37 1020.10 1019.71 1019.45 1018.96 1018.60 1018.08 1017.50 1017.15 1016.84 1016.18 1014.71 1013.67 1014.28 1014.16 1013.89 1013.89 1014.06 1013.95 1013.80 1013.73
1023.67 1023.68 1023.93 1024.30 1024.40 1024.47 1024.62 1024.72 1024.53 1024.35 1024.06 1023.94 1023.81 1023.70 1023.56 1023.31 1023.07 1022.77 1022.59 1022.19 1021.73 1021.28 1020.81 1020.37 1019.91 1019.61 1019.02 1018.60 1018.08 1017.37 1016.73 1016.19 1015.80 1015.02 1013.44 1013.61 1013.38 1013.51 1013.56 1013.58 1013.62 1013.50 1013.39
1023.98 1024.15 1024.50 1024.85 1024.95 1024.92 1024.88 1025.01 1024.87 1024.69 1024.53 1024.50 1024.27 1024.07 1023.80 1023.52 1023.24 1022.99 1022.67 1022.16 1021.74 1021.32 1020.96 1020.47 1019.90 1019.55 1019.04 1018.45 1018.04 1017.42 1016.71 1016.03 1015.51 1014.84 1013.90 1013.18 1013.25 1013.23 1013.45 1013.52 1013.28 1013.08 1012.83
1024.29 1024.60 1024.95 1025.46 1025.62 1025.55 1025.56 1025.60 1025.49 1025.34 1025.01 1024.94 1024.67 1024.19 1023.91 1023.55 1023.31 1023.17 1022.75 1022.20 1021.62 1021.12 1020.68 1020.26 1019.75 1019.27 1018.83 1018.47 1018.07 1017.29 1016.90 1016.11 1015.39 1014.69 1013.78 1013.27 1012.84 1013.14 1012.99 1012.57 1012.55 1012.34 1012.23
1024.95 1025.66 1026.06 1026.28 1026.32 1026.28 1026.21 1026.08 1025.75 1025.52 1025.21 1025.03 1024.67 1024.35 1023.94 1023.56 1023.18 1022.97 1022.67 1022.15 1021.70 1020.97 1020.32 1019.79 1019.53 1019.09 1018.45 1017.99 1017.56 1017.04 1016.62 1015.98 1015.30 1014.86 1013.86 1013.28 1012.62 1012.48 1012.25 1012.12 1012.04 1012.19 1011.85
1025.89 1026.29 1026.50 1026.64 1026.50 1026.51 1026.43 1026.17 1025.97 1025.67 1025.26 1024.99 1024.57 1024.22 1023.86 1023.40 1022.95 1022.63 1022.42 1021.94 1021.26 1020.60 1020.09 1019.44 1018.78 1018.44 1018.00 1017.44 1016.89 1016.43 1015.87 1015.52 1015.14 1014.57 1013.84 1013.20 1012.57 1012.33 1012.01 1011.70 1011.54 1011.67 1011.36
1026.20 1026.49 1026.69 1026.66 1026.75 1026.70 1026.63 1026.36 1026.06 1025.73 1025.40 1024.96 1024.49 1024.19 1023.77 1023.28 1022.84 1022.39 1022.00 1021.49 1020.79 1020.29 1019.89 1019.41 1018.72 1018.07 1017.74 1017.23 1016.50 1015.76 1015.23 1014.94 1014.27 1014.24 1013.86 1012.77 1012.47 1011.96 1011.54 1011.15 1010.97 1011.12 1011.80
1026.28 1026.56 1026.72 1026.91 1026.92 1026.83 1026.70 1026.34 1026.09 1025.77 1025.34 1024.86 1024.51 1024.03 1023.66 1023.08 1022.69 1022.24 1021.70 1021.13 1020.44 1019.83 1019.48 1019.07 1018.55 1017.96 1017.31 1016.70 1016.15 1015.58 1014.79 1014.26 1013.83 1013.27 1012.76 1012.43 1011.94 1011.31 1010.98 1011.10 1011.04 1011.19 1011.51
1026.43 1026.79 1026.96 1027.04 1026.98 1026.83 1026.58 1026.25 1025.79 1025.45 1024.90 1024.53 1023.94 1023.64 1023.31 1022.75 1022.30 1021.80 1021.32 1021.00 1020.24 1019.60 1018.96 1018.39 1018.00 1017.32 1016.77 1016.50 1015.95 1015.43 1014.23 1013.83 1013.37 1013.16 1012.57 1012.24 1011.87 1011.39 1011.30 1011.61 1011.41 1011.41 1011.66
1026.74 1026.89 1027.13 1027.07 1026.93 1026.67 1026.30 1026.01 1025.61 1025.13 1024.58 1024.08 1023.40 1022.88 1022.66 1022.41 1021.88 1021.52 1021.26 1020.80 1020.28 1019.41 1018.56 1017.81 1017.48 1017.23 1016.75 1016.15 1015.53 1014.84 1014.17 1013.76 1013.16 1013.04 1012.76 1012.47 1012.37 1012.19 1012.23 1012.27 1012.24 1012.09 1011.95
1026.79 1026.94 1027.06 1026.78 1026.65 1026.59 1026.23 1025.84 1025.37 1024.80 1024.14 1023.62 1022.93 1022.32 1022.03 1021.80 1021.52 1021.18 1020.91 1020.47 1019.86 1019.04 1018.34 1017.92 1017.57 1017.00 1016.36 1015.79 1015.26 1014.74 1014.21 1013.83 1013.44 1013.13 1013.01 1012.95 1012.90 1013.13 1013.31 1013.53 1013.60 1013.43 1013.30
1026.95 1027.05 1026.89 1026.78 1026.72 1026.54 1026.15 1025.54 1025.01 1024.37 1023.87 1023.14 1022.85 1022.15 1021.48 1021.29 1021.19 1020.79 1020.36 1019.90 1019.30 1018.89 1018.47 1017.90 1017.39 1016.84 1016.29 1015.80 1015.43 1014.93 1014.36 1013.99 1013.73 1013.50 1013.53 1013.78 1013.91 1014.10 1014.16 1014.23 1014.16 1014.38 1014.56
1027.10 1027.04 1026.95 1026.81 1026.49 1026.19 1025.74 1025.25 1024.75 1024.22 1023.66 1023.19 1022.55 1021.97 1021.24 1020.99 1020.75 1020.23 1019.86 1019.58 1019.12 1018.69 1018.26 1017.71 1017.25 1016.68 1016.24 1015.90 1015.51 1015.15 1014.76 1014.49 1014.27 1014.18 1014.31 1014.40 1014.48 1014.55 1014.59 1014.74 1014.79 1014.89 1015.20
1027.26 1027.03 1026.76 1026.51 1026.18 1025.79 1025.33 1024.87 1024.33 1023.87 1023.65 1023.01 1022.48 1021.84 1021.21 1020.50 1020.35 1020.23 1019.79 1019.33 1018.75 1018.36 1018.13 1017.73 1017.21 1016.83 1016.49 1016.13 1016.03 1016.02 1015.62 1015.23 1014.99 1014.84 1014.79 1014.91 1015.06 1015.19 1015.28 1015.25 1015.24 1015.39 1015.67
1027.48 1027.16 1026.90 1026.79 1026.24 1025.65 1025.11 1024.14 1023.79 1023.11 1022.75 1022.33 1021.68 1021.35 1020.82 1020.34 1020.14 1019.92 1019.31 1018.85 1018.55 1018.33 1018.10 1018.02 1017.83 1017.58 1017.26 1017.08 1016.92 1016.81 1016.72 1016.42 1016.10 1015.79 1015.61 1015.61 1015.70 1015.75 1015.85 1015.90 1015.84 1016.04 1016.46
1027.73 1027.65 1027.24 1026.86 1026.28 1025.92 1025.30 1024.70 1023.55 1022.44 1022.39 1021.65 1020.92 1020.39 1020.14 1019.75 1019.84 1019.58 1019.03 1018.52 1018.45 1018.31 1018.19 1018.24 1018.22 1018.15 1017.96 1017.88 1017.78 1017.64 1017.54 1017.45 1017.07 1016.81 1016.64 1016.51 1016.49 1016.53 1016.50 1016.66 1016.71 1016.84 1017.29
1027.95 1027.72 1027.37 1026.90 1026.43 1025.97 1025.50 1024.88 1024.20 1023.35 1022.03 1021.08 1020.63 1020.06 1019.59 1019.47 1019.51 1019.42 1019.04 1018.41 1018.43 1018.63 1018.73 1018.73 1018.76 1018.71 1018.60 1018.51 1018.49 1018.39 1018.25 1018.15 1017.90 1017.77 1017.69 1017.57 1017.35 1017.30 1017.26 1017.45 1017.66 1017.75 1018.04
1027.62 1027.33 1027.00 1026.62 1026.28 1025.84 1025.38 1024.83 1024.09 1023.29 1022.30 1021.27 1020.46 1019.69 1019.38 1019.34 1019.34 1019.34 1019.10 1018.56 1018.41 1018.78 1019.01 1019.15 1019.21 1019.25 1019.15 1019.12 1019.13 1019.10 1019.07 1019.11 1018.95 1018.67 1018.58 1018.47 1018.34 1018.24 1018.37 1018.54 1018.83 1018.92 1018.93
1027.38 1027.11 1026.86 1026.42 1025.99 1025.51 1024.93 1024.36 1023.75 1023.02 1022.33 1021.31 1020.31 1019.81 1019.66 1019.56 1019.39 1019.31 1019.41 1019.16 1018.99 1019.12 1019.35 1019.56 1019.73 1019.82 1019.87 1019.88 1019.82 1019.74 1019.67 1019.68 1019.65 1019.56 1019.52 1019.45 1019.36 1019.26 1019.39 1019.51 1019.69 1019.78 1020.01
1027.09 1026.73 1026.41 1026.07 1025.56 1025.12 1024.66 1024.23 1023.70 1022.91 1021.99 1021.08 1020.22 1019.89 1019.89 1019.99 1019.67 1019.77 1019.91 1019.96 1019.92 1019.93 1020.09 1020.25 1020.40 1020.47 1020.59 1020.63 1020.55 1020.51 1020.46 1020.47 1020.47 1020.42 1020.43 1020.44 1020.40 1020.50 1020.36 1020.31 1020.67 1020.83 1020.97
1026.75 1026.31 1025.97 1025.56 1025.23 1024.93 1024.58 1024.09 1023.46 1022.59 1021.68 1020.93 1020.34 1020.41 1020.44 1020.45 1020.43 1020.44 1020.57 1020.74 1020.92 1021.05 1021.05 1020.98 1021.08 1021.18 1021.36 1021.36 1021.27 1021.06 1020.99 1021.06 1021.11 1021.16 1021.24 1021.24 1021.10 1021.14 1021.14 1021.25 1021.56 1021.67 1021.77
1026.17 1025.97 1025.66 1025.31 1025.03 1024.68 1024.23 1023.72 1023.04 1022.43 1021.87 1021.10 1021.03 1020.93 1020.82 1020.83 1021.00 1021.07 1021.19 1021.36 1021.41 1021.59 1021.68 1021.53 1021.46 1021.54 1021.67 1021.71 1021.75 1021.70 1021.58 1021.65 1021.76 1021.80 1021.77 1021.73 1021.67 1021.69 1021.67 1022.02 1022.17 1022.29 1022.35
1026.03 1025.84 1025.51 1025.18 1024.75 1024.45 1023.91 1023.44 1023.15 1022.71 1022.25 1021.81 1021.58 1021.39 1021.27 1021.25 1021.37 1021.50 1021.55 1021.70 1021.77 1021.90 1021.99 1021.94 1021.82 1021.79 1021.76 1021.84 1021.86 1021.85 1021.92 1022.02 1022.05 1022.11 1022.12 1022.07 1022.09 1022.14 1022.14 1022.30 1022.40 1022.63 1022.74
1025.94 1025.67 1025.36 1025.02 1024.68 1024.37 1023.93 1023.33 1023.06 1022.90 1022.69 1022.24 1021.93 1021.83 1021.72 1021.61 1021.66 1021.67 1021.75 1021.81 1021.86 1021.83 1021.83 1022.01 1021.94 1021.82 1021.76 1021.78 1021.81 1021.90 1021.95 1021.95 1022.14 1022.20 1022.30 1022.29 1022.43 1022.42 1022.50 1022.50 1022.50 1022.56 1022.74
1025.72 1025.44 1025.08 1024.85 1024.59 1024.45 1024.31 1023.78 1023.34 1023.13 1022.85 1022.67 1022.23 1022.13 1022.05 1021.90 1021.85 1021.78 1021.82 1021.85 1021.78 1021.68 1021.70 1021.70 1021.69 1021.64 1021.56 1021.49 1021.47 1021.56 1021.67 1021.74 1021.96 1022.13 1022.23 1022.30 1022.57 1022.58 1022.67 1022.68 1022.74 1022.75 1022.99
Wind_Speed
9 9 9 8 8 8 7 7 7 7 8 9 9 9 8 9 9 8 9 9 10 10 10 11 14 13 10 9 9 9 10 9 15 20 12 9 5 7 6 8 8 9 8
7 8 9 8 8 8 8 7 7 7 6 6 6 7 8 8 9 8 9 9 10 11 11 11 13 10 12 11 9 13 11 10 11 20 17 11 10 8 7 7 7 5 7
6 8 8 8 7 8 7 7 7 7 8 8 7 8 8 8 9 9 10 11 11 12 12 12 14 15 15 11 11 11 11 11 10 11 16 10 11 1 3 3 3 5 5
6 7 7 7 7 7 7 8 8 8 8 8 8 8 7 8 7 7 9 10 10 10 11 12 13 14 14 13 11 12 11 10 11 12 13 12 10 0 1 3 6 5 8
7 8 9 7 8 8 7 7 7 6 6 6 7 7 7 7 5 9 10 10 11 12 11 13 12 12 16 17 11 13 12 11 10 10 11 11 10 4 5 3 6 5 3
8 7 5 5 5 5 5 5 6 6 6 6 6 7 8 6 12 14 14 11 12 12 12 14 12 16 17 21 22 21 17 12 12 9 11 12 14 10 6 6 6 2 4
3 3 3 4 4 5 5 6 6 7 7 7 8 8 9 9 15 18 17 10 11 11 12 13 13 9 12 14 18 21 18 17 18 13 14 13 14 10 6 8 7 5 4
3 2 3 4 5 6 6 6 6 7 8 8 9 9 10 9 17 18 18 11 11 12 13 14 15 14 11 13 13 13 11 10 9 9 11 12 11 11 10 10 5 2 2
3 3 4 4 5 5 5 6 6 7 8 8 8 10 12 11 17 18 16 10 11 12 10 10 12 15 18 18 12 13 13 11 9 16 18 18 19 18 8 2 2 3 1
3 3 4 4 3 5 6 7 6 7 8 7 9 8 12 12 16 17 15 8 12 9 10 10 13 14 19 19 12 12 14 11 7 9 5 6 6 7 5 4 1 1 3
2 2 3 3 5 5 7 7 8 8 11 11 11 9 11 10 11 18 18 10 9 11 10 8 7 18 21 22 20 9 10 11 7 6 4 3 4 6 5 5 7 4 1
3 3 4 4 5 6 7 8 8 8 9 11 12 11 7 8 13 17 19 16 15 7 8 9 10 21 20 18 12 14 14 9 4 3 2 3 5 6 6 7 8 9 9
3 3 4 5 6 6 7 8 7 7 7 8 8 10 10 8 10 18 16 16 16 10 9 13 19 16 14 8 13 12 7 4 4 3 4 5 5 4 3 3 6 7 11
3 4 5 5 6 6 5 6 7 7 7 9 8 9 9 7 7 8 6 8 9 9 11 9 10 10 7 7 6 7 4 4 4 4 4 4 4 4 4 3 3 3 4
3 4 6 5 6 8 7 7 7 8 9 9 10 9 9 9 6 17 13 7 6 6 8 6 5 4 4 5 5 6 7 7 6 5 4 4 4 4 4 3 3 3 5
5 5 5 6 6 6 8 9 12 17 19 21 23 17 10 14 16 20 19 16 7 9 4 4 4 4 4 5 5 5 5 6 6 5 4 4 4 4 4 4 4 4 5
4 6 6 6 6 7 7 8 11 10 17 20 20 20 22 16 16 18 19 6 3 3 2 2 2 3 3 4 4 4 4 5 5 5 5 5 4 4 4 4 4 4 5
4 6 6 6 6 6 7 8 8 11 12 10 12 16 14 14 14 13 15 2 2 2 1 1 1 2 3 3 4 4 4 5 5 5 5 5 5 4 4 4 4 4 4
5 5 5 6 6 7 7 8 8 10 10 11 10 11 7 11 11 9 10 5 2 2 1 1 2 2 3 3 3 3 3 3 4 3 4 4 5 4 4 3 4 5 4
5 7 6 6 6 7 7 7 8 8 9 10 9 7 3 2 4 2 2 2 1 2 2 2 2 3 3 3 3 3 2 3 4 4 4 4 4 4 3 3 4 3 3
4 5 6 6 6 6 7 8 8 9 9 9 7 2 8 5 3 1 1 2 3 2 2 2 2 2 2 2 2 2 2 2 3 3 3 3 3 3 3 3 3 3 3
5 5 5 6 6 6 7 7 8 9 9 9 3 1 5 2 2 1 2 2 3 3 3 2 2 2 2 3 3 2 2 2 2 2 2 2 2 2 2 3 3 2 2
4 5 6 5 6 7 7 7 7 7 8 5 3 3 2 2 2 2 2 2 2 2 2 2 1 1 1 1 2 2 2 2 2 2 2 1 1 1 1 2 2 1 2
4 5 5 5 4 5 5 6 6 6 5 4 4 3 2 1 1 1 1 1 1 1 2 2 1 2 1 1 1 1 1 1 1 1 2 1 1 0 1 1 1 2 2
4 4 4 4 4 5 5 5 5 5 5 4 3 3 2 1 1 1 0 1 1 2 3 2 2 3 3 3 3 2 2 4 1 1 1 1 1 1 1 0 1 1 1
4 4 3 3 4 4 5 5 5 4 4 4 3 3 3 3 2 2 2 2 3 3 4 3 5 6 6 5 5 6 5 5 5 6 3 2 2 2 2 2 3 1 3
Wind_Direction
68 71 72 65 65 63 54 43 26 21 14 10 1 354 350 343 343 334 323 313 308 303 298 294 293 292 284 279 275 265 260 256 267 284 277 280 235 228 237 235 241 239 247
78 76 70 63 57 55 46 31 21 15 8 2 354 348 343 339 337 332 324 319 312 304 300 298 293 293 285 284 281 275 272 269 262 272 279 279 262 226 242 231 237 239 247
77 75 68 57 52 48 36 21 13 6 4 0 353 348 340 337 333 332 329 320 316 313 312 308 302 303 297 296 288 285 281 276 268 271 279 278 277 170 235 242 243 255 253
79 76 67 49 37 31 23 11 5 357 353 349 346 336 331 327 322 332 321 314 309 306 303 298 299 297 294 289 287 285 284 279 275 272 275 282 276 334 229 243 259 222 255
65 54 42 25 19 12 6 356 349 342 339 332 325 326 325 321 326 323 318 312 305 304 299 300 296 292 285 284 288 290 291 287 283 281 278 278 278 254 229 213 240 263 241
53 42 24 7 355 355 341 330 324 320 321 323 318 315 318 312 311 316 315 309 304 298 299 301 301 305 303 299 295 290 285 290 286 284 281 277 280 278 270 238 244 217 271
81 72 20 354 348 346 331 330 326 326 324 320 316 317 312 309 312 315 314 307 301 294 295 300 302 300 299 303 299 295 293 287 283 287 283 281 287 291 289 262 233 218 233
101 69 22 359 349 339 335 327 328 331 328 320 316 314 308 305 310 312 312 302 296 298 301 304 303 306 308 305 297 298 293 288 279 279 275 283 280 281 264 270 233 183 82
86 46 14 355 334 328 316 317 314 311 307 305 302 311 309 302 309 313 319 312 304 302 296 287 297 299 304 304 307 300 298 292 270 277 282 292 301 298 279 196 183 165 143
42 4 346 334 303 304 302 303 303 291 290 290 291 296 299 297 307 315 323 312 307 304 304 302 295 299 313 315 305 297 301 308 306 305 302 312 331 347 22 3 61 175 94
20 347 325 321 310 299 302 299 297 297 298 298 295 296 303 303 308 317 317 313 306 306 305 309 317 317 316 316 314 305 296 307 322 315 318 3 28 37 34 24 27 27 26
10 333 319 320 321 311 303 295 292 292 294 299 303 301 297 303 308 311 309 309 307 313 319 313 312 316 320 323 333 333 345 344 321 323 7 37 51 45 42 39 40 51 42
349 322 318 318 303 293 299 298 297 293 291 297 295 297 304 311 311 311 311 313 321 316 308 309 317 321 325 345 339 350 342 341 337 25 49 53 57 64 63 67 75 68 54
328 325 316 304 307 296 297 298 294 292 292 296 291 288 295 296 304 309 318 305 294 312 314 315 307 309 320 355 349 355 352 2 12 42 58 60 55 51 52 31 47 63 64
318 306 305 299 307 304 286 286 283 276 278 290 286 287 296 288 298 305 303 291 292 296 316 311 331 344 353 13 25 13 11 15 29 33 51 56 58 51 41 31 34 41 59
311 306 318 305 296 301 299 300 283 284 286 284 283 279 281 264 293 301 308 294 308 315 291 322 339 353 11 8 11 10 15 13 12 19 33 39 45 47 51 43 46 59 72
293 302 301 297 301 299 301 302 305 304 294 291 286 284 277 266 281 294 306 250 13 291 272 294 336 3 7 14 12 17 13 9 2 23 27 30 37 38 40 44 50 73 71
278 271 277 281 284 288 289 289 292 296 304 304 291 289 284 278 279 293 314 205 191 60 16 31 36 12 22 23 19 12 12 10 23 27 30 28 25 25 46 48 40 53 78
286 280 283 285 283 282 284 279 281 287 290 293 298 289 266 268 273 283 303 275 186 160 143 99 41 26 37 35 31 31 31 22 11 19 29 28 21 27 43 51 71 43 49
262 259 269 286 286 287 286 287 289 288 289 287 287 288 320 288 259 249 304 306 102 117 111 100 61 40 31 18 15 6 13 18 14 21 22 22 22 18 44 42 25 52 33
284 285 280 281 275 287 292 287 283 284 285 283 283 345 309 294 300 348 15 17 19 53 57 59 58 51 28 13 1 15 19 24 21 14 20 23 6 33 17 37 74 59 63
275 281 287 292 295 288 287 290 285 279 286 293 296 6 350 344 354 44 58 53 36 32 23 32 48 43 24 10 354 1 21 28 27 23 41 22 20 44 35 46 57 80 89
282 289 290 288 287 292 292 298 302 307 311 321 328 310 346 8 16 34 58 47 41 28 10 358 25 50 57 16 11 4 1 27 23 11 23 32 23 63 1 97 106 78 89
274 275 280 284 291 298 296 314 310 314 312 320 329 332 350 10 28 52 58 45 17 328 325 319 326 327 353 321 343 22 35 20 24 34 4 10 112 219 60 83 119 79 124
267 276 285 295 303 306 309 313 317 318 316 322 326 325 326 324 296 292 285 279 287 284 274 275 276 275 262 262 267 276 286 315 133 2 346 333 77 112 92 154 140 131 96
270 274 284 292 301 310 309 314 315 312 312 310 314 312 308 306 298 291 275 269 271 268 268 263 259 256 259 259 251 244 237 228 214 218 234 225 183 201 182 197 187 189 159